This is the latest recevied weather packets stored in our database for station/object KE5VT. If no packets are shown the sender has not sent any weather packets the latest 10 day(s).
| Time | Temp. | Humidity | Pressure | Rain* | Wind** | Luminosity | Snow |
|---|---|---|---|---|---|---|---|
| 1777852468 | 18.33° C | 45% | 1012.1 hPa | 0 mm | - | 7 W/m² | - |
| 1777852165 | 18.33° C | 44% | 1012.1 hPa | 0 mm | - | 9 W/m² | - |
| 1777851863 | 18.89° C | 42% | 1012.3 hPa | 0 mm | - | 13 W/m² | - |
| 1777851560 | 18.89° C | 42% | 1012.1 hPa | 0 mm | - | 14 W/m² | - |
| 1777851257 | 18.89° C | 40% | 1012.1 hPa | 0 mm | - | 15 W/m² | - |
| 1777850953 | 18.89° C | 40% | 1012.2 hPa | 0 mm | - | 16 W/m² | - |
| 1777850650 | 18.89° C | 41% | 1012.2 hPa | 0 mm | - | 18 W/m² | - |
| 1777850348 | 18.89° C | 40% | 1012.1 hPa | 0 mm | - | 19 W/m² | - |
| 1777850045 | 18.89° C | 41% | 1012.2 hPa | 0 mm | - | 20 W/m² | - |
| 1777849741 | 18.89° C | 40% | 1012.3 hPa | 0 mm | - | 22 W/m² | - |
| 1777849438 | 18.89° C | 40% | 1012.3 hPa | 0 mm | - | 23 W/m² | - |
| 1777849136 | 19.44° C | 40% | 1012.1 hPa | 0 mm | - | 25 W/m² | - |
| 1777848832 | 20° C | 39% | 1012 hPa | 0 mm | - | 34 W/m² | - |
| 1777848528 | 19.44° C | 39% | 1012.2 hPa | 0 mm | - | 30 W/m² | - |
| 1777848225 | 19.44° C | 39% | 1012.3 hPa | 0 mm | - | 31 W/m² | - |
| 1777847923 | 20° C | 39% | 1012.4 hPa | 0 mm | - | 38 W/m² | - |
| 1777847621 | 20.56° C | 38% | 1012.2 hPa | 0 mm | - | 130 W/m² | - |
| 1777847316 | 20.56° C | 37% | 1012.3 hPa | 0 mm | - | 160 W/m² | - |
| 1777847015 | 21.11° C | 36% | 1012.3 hPa | 0 mm | - | 173 W/m² | - |
| 1777846712 | 21.11° C | 36% | 1012.2 hPa | 0 mm | - | 187 W/m² | - |
| 1777846411 | 20.56° C | 36% | 1012.3 hPa | 0 mm | - | 203 W/m² | - |
| 1777846106 | 20.56° C | 37% | 1012.2 hPa | 0 mm | - | 219 W/m² | - |
| 1777845803 | 20.56° C | 38% | 1012.5 hPa | 0 mm | - | 234 W/m² | - |
| 1777845500 | 20.56° C | 36% | 1012.4 hPa | 0 mm | - | 250 W/m² | - |
| 1777845198 | 20.56° C | 36% | 1012.4 hPa | 0 mm | - | 265 W/m² | - |
* Rain latest hour (hover to see other rain measurements)
** Current wind speed in m/s (hover to see current wind gust speed)